www.pogodaiklimat.ru

Архив погоды в Койгородке (Коми, Россия)

Время
(UTC), дата
06 26.05
09 26.05
12 26.05
15 26.05
18 26.05
21 26.05
00 27.05
03 27.05
06 27.05
09 27.05
12 27.05
15 27.05
18 27.05
21 27.05
00 28.05
03 28.05
06 28.05
09 28.05
12 28.05
15 28.05
18 28.05
21 28.05
00 29.05
03 29.05
06 29.05
09 29.05
12 29.05
15 29.05
18 29.05
21 29.05
00 30.05
03 30.05
06 30.05
09 30.05
12 30.05
15 30.05
18 30.05
21 30.05
03 31.05
06 31.05
09 31.05
12 31.05
15 31.05
18 31.05
21 31.05
00 1.06
03 1.06
06 1.06
09 1.06
12 1.06
15 1.06
18 1.06
21 1.06
00 2.06
Ветер
(напр.,м/с)
Видим. Явления Облачность Т
(С)
Тd
(С)
f
(%)
Тe
(С)
Тes
(С)
Комфортность P
(гПа)
Po
(гПа)
Тmin
(С)
Tmax
(С)
R
(мм)
R24
(мм)
S
(см)
Ю 4-10
{10}
20 км 10/0
[Ac lent Ci fib]
+22.3 +12.6 54 +25 +27 комфорт 1013.8 999.3
ЮЗ 4
{10}
20 км 10/5 600 м
[Cb calv Ac trans Ci fib]
+24.5 +12.4 47 +26 +29 жарко 1013.3 998.8
ЮЗ 3
{13}
20 км 10/3 600 м
[Cb calv Ac trans Ci fib]
+24.8 +12.4 46 +27 +29 жарко 1012.7 998.3
Ю 1
{10}
20 км {ливн. дождь} 10/4 1000 м
[Cb calv Ac As]
+19.6 +15.8 79 +23 +23 комфорт 1012.8 998.2 +25.5 2
Ю 1 20 км {ливн. дождь} 10/0
[Ac trans Ci fib]
+16.5 +13.8 84 +17 +17 1013.8 999.0
Ю 1 8000 м слаб. ливневой дождь 10/8 840 м
[Cb calv Ac As]
+15.8 +14.3 91 +16 +16 1014.2 999.3
Ю 1 2600 м ливневой дождь 10/10 960 м
[Cb cap]
+15.2 +15.2 100 +16 +16 1014.1 999.2
ЮВ 1 6000 м слаб. дождь {ливн. дождь} 10/5 600 м
[Cb calv As op]
+15.5 +15.5 100 +16 +16 1013.4 998.6 +14.9 8
ЮВ 1 8000 м слаб. ливневой дождь 10/9 720 м
[Cb calv Ac As]
+16.9 +16.4 97 +18 +18 1012.8 998.0
штиль 0 20 км в посл. час ливневой дождь 10/10 630 м
[Cb calv]
+16.2 +16.2 100 +16 +16 1013.0 998.2
В 1 20 км {ливн. дождь} 10/4 600 м
[Cb calv Ac As]
+17.6 +16.5 93 +19 +20 1011.7 996.9
С 2 20 км в посл. час ливневой дождь 10/10 660 м
[Cb calv]
+16.3 +16.1 99 +16 +16 1011.5 996.7 +18.3 10
штиль 0 16 км {ливн. дождь} 10/0
[Ac lent Ci fib]
+14.8 +14.8 100 +14 +14 1011.4 996.5
С 1 1400 м в посл. час туман 10/0
[Ac und]
+13.7 +13.7 100 +14 +14 1011.5 996.5
С 1 800 м туман, небо не видно ?/? +13.0 +13.0 100 +13 +13 1011.9 996.9
С 1 3100 м дымка {туман} 10/10 150 м
[St]
+13.7 +13.7 100 +14 +14 1012.1 997.2 +12.7 1
С 1 17 км {туман} 10/10 210 м
[Cb calv]
+14.9 +14.9 100 +15 +15 1012.4 997.5
В 2 8000 м слаб. ливневой дождь 10/10 400 м
[Cb calv]
+15.7 +15.4 98 +16 +16 1011.4 996.6
СВ 2 20 км в посл. час ливневой дождь 10/10 210 м
[Cb calv]
+16.7 +16.7 100 +17 +17 1009.4 994.7
В 2 6000 м дымка 10/5 300 м
[Cb calv Ac lent]
+17.9 +17.5 98 +18 +19 1006.6 992.0 +18.0 9
ЮВ 1 20 км {гроза, ливн. дождь} 8/3 300 м
[Cb calv Ac trans Ci fib]
+17.5 +17.0 97 +19 +19 1005.2 990.6
Ю 3 22 км 3/3 300 м
[Cb calv]
+15.1 +14.8 98 +14 +14 1005.9 991.1
Ю 3 20 км 10/10 330 м
[Sc]
+14.2 +13.7 97 +13 +13 1006.2 991.4
Ю 3 20 км в посл. час дождь 10/10 240 м
[Frnb]
+13.3 +13.0 98 +12 +12 1007.7 992.8 +13.3 0.3
Ю 2 20 км в посл. час ливневой дождь 10/10 270 м
[Cb calv]
+13.9 +13.5 97 +13 +13 1008.5 993.6
З 3 20 км {ливн. дождь} 10/10 480 м
[Cb calv]
+14.4 +12.6 89 +13 +13 1009.8 994.9
ЮЗ 3 20 км {ливн. дождь} 6/5 300 м
[Cb calv Ac trans]
+17.4 +10.0 62 +17 +20 1009.7 995.0
З 5-10
{10}
20 км в посл. час гроза 9/8 540 м
[Cb calv Ac trans]
+14.6 +10.8 78 +13 +13 1012.1 997.2 +18.2 1
З 2
{10}
20 км {гроза} 10/0
[Ac lent]
+11.9 +9.8 87 +11 +11 1015.2 1000.1
Ю 1 27 км 1/0
[Ac trans]
+9.5 +9.0 97 +9 +9 1016.3 1001.1
Ю 1 20 км ясно +5.8 +5.8 100 +4 +4 1017.9 1002.4
ЮВ 1 20 км ясно +12.2 +9.8 85 +12 +16 1019.1 1004.0 +5.7
Ю 2 20 км 3/0
[Ci]
+20.2 +9.7 51 +22 +32 комфорт 1019.2 1004.5
З 3 20 км 5/5 1000 м
[Sc]
+21.4 +5.3 35 +22 +28 комфорт 1018.6 1003.9
Ю 2 20 км 8/8 960 м
[Sc]
+22.2 +6.4 36 +23 +25 комфорт 1017.4 1002.8
Ю 3 20 км 9/4 1000 м
[Sc Ci sp]
+22.2 +6.0 35 +23 +24 комфорт 1016.5 1001.9 +23.6
штиль 0 20 км 10/0
[Ac trans Ci sp]
+12.2 +9.9 86 +12 +12 1016.5 1001.4
штиль 0 30 км 10/0
[Ac lent]
+10.4 +10.0 97 +10 +10 1015.2 1000.0
С 1 8000 м слаб. дождь 10/0
[As op]
+11.6 +11.6 100 +11 +12 1013.0 997.9 +9.9
С 1 20 км {дождь} 10/0
[Ac As]
+13.7 +13.4 98 +14 +18 1011.0 996.1
В 1 20 км 10/0
[As op]
+15.2 +12.5 84 +16 +19 1009.2 994.3
штиль 0 7000 м слаб. ливневой дождь 10/9 500 м
[Cb calv As op]
+14.2 +13.5 96 +14 +14 1008.0 993.1
СВ 1 20 км {ливн. дождь} 10/5 300 м
[Cb calv As op]
+13.9 +13.4 97 +14 +14 1006.2 991.3 +15.2 2
штиль 0 20 км {ливн. дождь} 10/9 480 м
[Cb calv Ac As]
+13.2 +13.2 100 +13 +13 1004.7 989.8
штиль 0 22 км 10/10 450 м
[Sc]
+12.1 +12.1 100 +11 +11 1003.7 988.8
З 1 7000 м слаб. дождь 10/4 600 м
[Sc As op]
+11.4 +11.4 100 +11 +11 1003.4 988.4
Ю 1 20 км {дождь} 10/10 210 м
[Frnb]
+12.9 +12.9 100 +13 +13 1002.8 988.0 +11.3 0.9
Ю 1 20 км {дождь} 10/4 300 м
[Cb calv Ac lent]
+16.4 +14.1 86 +17 +19 1002.4 987.7
ЮЗ 4 20 км {ливн. дождь} 10/10 400 м
[Cb calv]
+15.4 +13.7 90 +14 +14 1003.9 989.1
З 3 20 км {ливн. дождь} 9/3 300 м
[Cb calv Ac lent]
+17.2 +11.0 67 +17 +19 1006.3 991.6
ЮЗ 3 20 км 1/0 +17.1 +8.2 56 +17 +19 1008.8 994.1 +17.5 2
Ю 1 20 км 1/0
[Ci fib]
+9.9 +9.4 97 +9 +9 1010.6 995.5
Ю 1 28 км 1/0
[Ci fib]
+7.5 +7.5 100 +6 +6 1012.0 996.7
Ю 1 20 км 3/0
[Ci fib]
+4.9 +4.9 100 +3 +3 1013.4 997.9
Местоположение метеостанции Койгородок (Коми, Россия): широта 60.45 долгота 50.97 высота над уровнем моря 125 м.
В архиве по умолчанию представлена погода в Койгородке за последнюю неделю. Архивные данные за месяц целиком и за предыдущие месяцы, начиная с января 2011 года, Вы можете получить, выбрав интересующий диапазон дат из раскрывающегося списка и нажав кнопку "Найти!".
*Определитесь, кто Вы:
Внимание! Время в таблицах - всемирное. Для получения местного времени необходимо прибавить поправку, которая равна 3 ч.
Смотрите также архив погоды в соседних городах и на ближайших метеорологических станциях:
Партнеры нашего сайта:
Alloc
Галерея работ. Интернет-магазин отделочных материалов.
ave-parket.ru

     
Пояснения к столбцам:
  • Ветер - указаны скорость ветра в м/с - средняя за 10 мин, порывы в срок и между сроками (в фигурных скобках) и направление, откуда дует ветер: С - северный,
  • СВ - северо-восточный, В - восточный, ЮВ - юго-восточный, Ю - южный, ЮЗ - юго-западный, З - западный, СЗ - северо-западный.
  • Видимость - горизонтальная дальность видимости в метрах или километрах. При видимости от 1 до 10 км при отсутствии осадков обычно наблюдается дымка, при ухудшении видимости до 1 км и менее - туман. В сухую погоду видимость может ухудшаться дымом, пылью или мглою.
  • Явления - указаны атмосферные явления, наблюдавшиеся в срок или в последний час перед сроком; фигурными скобками обозначены явления, наблюдавшиеся между сроками (за 1-3 часа до срока); квадратными скобками обозначены град или гололедные отложения с указанием их диаметра в мм.
  • Облачность - указаны через наклонную черту общая и нижняя облачность в баллах и высота нижней границы облаков в метрах; квадратными скобками обозначены формы облаков: Ci - перистые, Cs - перисто-слоистые, Cc - перисто-кучевые, Ac - высококучевые, As - высокослоистые, Sc - слоисто-кучевые, Ns - слоисто-дождевые, Cu - кучевые, Cb - кучево-дождевые. Подробнее классификацию облаков см. в Атласе облаков (PDF).
  • T - Температура воздуха - температура, измеренная на высоте 2 м над землей.
  • Td - Температура точки росы - температура, при понижении до которой содержащийся в воздухе водяной пар достигнет насыщения.
  • f - Относительная влажность воздуха - влажноcть воздуха, измеренная на высоте 2 м над землей.
  • Te - Эффективная температура - температура, которую ощущает одетый по сезону человек в тени. Характеристика душности погоды. При расчете учитывается влияние влажности воздуха и скорости ветра на теплоощущения человека.
  • Tes - Эффективная температура на солнце - температура, которую ощущает человек, с поправкой на солнечный нагрев. Характеристика знойности погоды. Зависит от высоты солнца над горизонтом, облачности и скорости ветра. Ночью, в пасмурную погоду, а также при ветре 12 м/с и более поправка равна нулю.
  • P - Атмосферное давление - приведенное к уровню моря атмосферное давление.
  • Po - Атмосферное давление - измеренное на уровне метеостанции атмосферное давление.
  • Tmin - Минимальная температура - минимум температуры воздуха на высоте 2 м над землей.
  • Tmax - Максимальная температура - максимум температуры воздуха на высоте 2 м над землей.
  • R - Количество осадков - Количество выпавших осадков за период времени, мм. При наведении курсора мыши на число - период времени, за который выпало указанное количество осадков.
  • R24 - Количество осадков - Количество выпавших осадков за 24 часа, мм.
  • S - Снежный покров - Высота снежного покрова, см. При наведении курсора мыши на число - состояние снежного покрова и степень покрытия местности в баллах.